Location: Hanesy
(48.8798°N, 19.2107°E)
Time: 02:37:51
(UTC+00:00)

Daily predictions for brighter satellites

Satellite Brightness Start Highest point End
(mag) Time Altitude Azimuth Time Altitude Azimuth Time Altitude Azimuth
CZ-4C R/B 4.1 01:36:43 27° NE 01:36:43 27° NE 01:39:29 10° NE
Cosmos 2237 Rocket 4.2 01:38:03 23° NE 01:38:03 23° NE 01:40:09 10° NNE
Cosmos 2219 Rocket 4.3 01:44:59 20° NNE 01:44:59 20° NNE 01:46:42 10° NNE
Cosmos 1943 Rocket 3.8 01:56:19 31° ENE 01:56:19 31° ENE 02:00:33 10° ESE
BREEZE-M DEB (TANK) 4.1 02:01:57 76° ENE 02:01:57 76° ENE 02:06:15 10° ENE
ATLAS 2AS CENTAUR R/B 4.4 01:59:43 24° NNW 02:01:50 27° N 02:08:07 10° ENE
Lacrosse 5 4.1 02:06:04 20° ESE 02:06:04 20° ESE 02:07:41 10° ESE
ATLAS CENTAUR R/B 3.9 02:16:07 22° NE 02:16:07 22° NE 02:17:45 10° NE
SL-16 R/B 3.0 02:19:42 48° ENE 02:19:42 48° ENE 02:24:08 10° NE
CZ-2C R/B 4.1 02:16:38 10° NNE 02:21:14 31° E 02:22:17 29° ESE
ADEOS II 4.4 02:19:53 10° N 02:20:47 15° N 02:20:47 15° N
IDEFIX/ARIANE 42P 3.8 02:21:46 10° NNE 02:24:45 35° NNE 02:24:45 35° NNE
Cosmos 2369 Rocket 3.3 02:24:49 25° N 02:27:38 42° NE 02:33:01 10° ESE
USA 215 3.3 02:46:51 10° NE 02:53:17 62° NNW 02:54:03 58° NW
Cosmos 2333 Rocket 4.0 02:55:44 18° NNW 02:55:44 18° NNW 02:58:30 10° N
Meteor 2-3 Rocket 4.1 02:52:31 10° N 02:58:16 66° ENE 03:04:01 10° SSE
ADEOS 3.5 02:53:36 10° NNE 02:58:52 83° ESE 02:58:56 83° SE
Cosmos 1842 Rocket 4.4 03:03:16 36° SE 03:04:41 50° E 03:09:03 10° NNE
Cosmos 921 Rocket 4.4 03:04:06 10° N 03:08:19 39° ENE 03:12:25 10° SE
Meteor 2-10 Rocket 3.6 03:16:51 58° NW 03:16:51 58° NW 03:21:25 10° N
Cosmos 2237 Rocket 3.4 03:19:53 26° NNW 03:19:53 26° NNW 03:23:52 10° NNE
NOSS 3-1 (A) 4.4 03:19:35 42° WSW 03:19:35 42° WSW 03:27:24 10° S
Cosmos 2221 3.0 03:19:42 20° SSE 03:22:27 58° E 03:26:42 10° NNE
CZ-4C R/B 3.2 03:21:53 31° NW 03:22:37 32° NNW 03:28:24 10° NE
COSMO-SKYMED 1 3.6 03:19:25 10° SE 03:23:34 47° ENE 03:27:45 10° N
SJ-6F 4.4 03:21:02 10° NNE 03:24:50 74° N 03:24:50 74° N
Cosmos 2219 Rocket 4.2 03:26:42 14° NNW 03:26:42 14° NNW 03:29:33 10° N
USA 267 4.3 03:22:53 10° S 03:26:50 26° SSW 03:26:50 26° SSW
Meteor 1-27 4.3 03:24:01 10° S 03:29:33 74° E 03:35:07 10° NNE
STARLINK-1162 4.4 03:30:18 34° NNE 03:30:18 34° NNE 03:32:46 10° ENE
STARLINK-1157 4.3 03:32:18 35° NNE 03:32:18 35° NNE 03:34:51 10° ENE
STARLINK-1159 4.2 03:34:27 36° NNE 03:34:27 36° NNE 03:37:06 10° ENE
STARLINK-1171 4.1 03:36:42 37° NNE 03:36:42 37° NNE 03:39:27 10° ENE
STARLINK-1155 4.1 03:38:46 37° NNE 03:38:46 37° NNE 03:41:37 10° ENE
Cosmos 1943 Rocket 2.2 03:37:56 38° WNW 03:39:41 52° WSW 03:45:00 10° S
Meteor 1-31 Rocket 2.6 03:36:39 10° NNE 03:40:29 84° WNW 03:41:21 52° SSW
STARLINK-1166 4.0 03:40:59 38° N 03:40:59 38° N 03:43:56 10° ENE
STARLINK-1165 3.9 03:43:08 38° N 03:43:08 38° N 03:46:12 10° ENE
Cosmos 1605 Rocket 4.1 03:37:13 10° NNW 03:43:07 46° W 03:48:56 10° SSW
STARLINK-1179 4.2 03:44:44 30° NE 03:44:44 30° NE 03:46:40 10° ENE
STARLINK-1176 4.1 03:45:16 30° NNE 03:45:16 30° NNE 03:47:16 10° ENE
STARLINK-1169 3.9 03:45:17 38° N 03:45:22 39° N 03:48:26 10° ENE
Lacrosse 5 2.3 03:45:18 39° SW 03:45:32 40° SW 03:50:15 10° SSE
NOSS 2-1 (C) 4.2 03:46:03 31° NNW 03:46:03 31° NNW 03:49:16 10° NNE
CZ-4B R/B 2.5 03:42:46 10° NNE 03:46:29 89° ESE 03:48:09 31° SSW
STARLINK-1178 3.9 03:47:26 38° N 03:47:36 39° N 03:50:42 10° ENE
STARLINK-1120 3.8 03:49:30 38° N 03:49:46 39° N 03:52:51 10° ENE
NOSS 2-1 (D) 4.2 03:50:02 29° NNW 03:50:02 29° NNW 03:53:20 10° NNE
STARLINK-1131 3.8 03:51:41 38° NNW 03:52:03 39° N 03:55:09 10° ENE
ATLAS CENTAUR R/B 2.7 03:52:19 27° NW 03:52:34 27° NW 03:56:21 10° NNE
STARLINK-1190 3.8 03:53:55 37° NNW 03:54:24 40° N 03:57:30 10° ENE
ATLAS 2AS CENTAUR R/B 4.0 03:47:41 10° NW 03:54:59 40° NNE 04:01:46 10° E
ALOS 2.7 03:50:48 10° NNE 03:55:28 64° ESE 04:00:06 10° S
PAYLOAD A 4.5 03:53:23 10° N 03:57:49 36° WNW 03:58:46 33° W
CZ-2C R/B 2.9 03:54:41 10° N 03:59:33 41° WNW 04:01:40 28° WSW
ADEOS Rocket 4.0 03:55:26 10° SE 04:01:38 56° ENE 04:08:32 10° N
FENGYUN 3A 3.9 03:56:53 10° NNE 04:02:21 72° ESE 04:07:46 10° S
SL-16 R/B 3.1 04:01:35 27° WNW 04:03:02 31° NW 04:08:03 10° NNE
Cosmos 2251 Rocket 4.4 04:03:08 27° WNW 04:04:02 29° NW 04:08:39 10° N
Cosmos 1869 3.1 04:01:58 10° SSW 04:05:56 75° W 04:09:55 10° N
IDEFIX/ARIANE 42P 4.1 04:02:33 10° NNW 04:05:34 18° NW 04:05:34 18° NW
Cosmos 1400 Rocket 4.4 04:02:17 10° SSE 04:06:01 38° E 04:09:50 10° NNE
Sich 1 3.3 04:02:44 10° N 04:07:02 71° E 04:11:20 10° SSE
Cosmos 1805 Rocket 3.4 04:02:43 10° N 04:07:05 85° W 04:11:25 10° S
Cosmos 1633 2.4 04:06:10 10° NNW 04:09:49 70° W 04:13:26 10° S
H-2A R/B 2.8 04:06:41 10° N 04:10:54 48° WNW 04:15:05 11° SW
TELKOM 3 2.9 04:11:17 65° NNE 04:11:17 65° NNE 04:13:17 10° E
SKYMED 2 3.5 04:07:21 10° S 04:11:38 59° W 04:15:57 10° NNW
Cosmos 2369 Rocket 2.6 04:06:41 11° NW 04:11:38 39° WSW 04:16:53 10° S
Meteor PRIRODA 3.6 04:08:00 10° N 04:11:41 61° WNW 04:15:18 10° SSW
BREEZE-M DEB (TANK) 3.9 04:09:16 26° W 04:12:03 66° SSW 04:27:34 10° ESE
Cosmos 2084 4.2 04:08:10 10° SSW 04:12:34 55° SE 04:16:58 10° NE
STARLINK-1118 2.4 04:12:48 52° SSW 04:13:14 69° SSE 04:15:44 10° ENE
Cosmos 1727 Rocket 4.1 04:07:50 10° SSW 04:13:49 50° WNW 04:19:50 10° N
Cosmos 1500 Rocket 4.1 04:10:12 10° NNW 04:14:14 35° W 04:18:13 10° SSW
Cosmos 2173 Rocket 3.9 04:11:21 10° NNW 04:17:34 65° W 04:23:41 10° S
STARLINK-1129 3.7 04:16:13 26° NW 04:17:42 45° NNE 04:20:54 10° E
Cosmos 1603 3.7 04:13:30 10° SW 04:19:10 63° WNW 04:24:50 10° NNE
Cosmos 1023 Rocket 4.4 04:14:07 10° SSW 04:19:24 83° WNW 04:24:44 10° NNE
STARLINK-1134 3.7 04:18:18 25° NW 04:19:53 46° NNE 04:23:05 10° E
Cosmos 1656 Rocket 3.7 04:14:51 10° NNW 04:20:30 67° WSW 04:26:08 10° SSE
STARLINK-1135 3.7 04:20:42 23° NW 04:22:24 46° NNE 04:25:36 10° E
Cosmos 1943 3.1 04:17:28 10° SW 04:23:04 73° WNW 04:28:45 10° NNE
Aureole 2 Rocket 3.7 04:25:19 20° SW 04:25:19 20° SW 04:27:00 10° SSW
STARLINK-1141 3.7 04:22:57 22° NW 04:24:44 47° NNE 04:27:57 10° E
CZ-4B DEB 4.3 04:20:54 10° NNE 04:26:26 86° ESE 04:31:54 10° SSW
STARLINK-1140 3.7 04:25:13 21° NW 04:27:06 48° NNE 04:30:19 10° E
STARLINK-1156 3.6 04:27:28 20° NW 04:29:27 49° NNE 04:32:40 10° E
Okean O Rocket 2.2 04:25:19 10° NNE 04:29:40 62° ESE 04:33:58 10° S
STARLINK-1149 3.2 04:28:43 23° NW 04:30:10 48° NNE 04:32:52 10° E
STARLINK-1148 3.6 04:29:44 19° NW 04:31:49 50° NNE 04:35:03 10° E
CZ-4B R/B 3.6 04:27:43 10° NNE 04:33:02 64° ESE 04:38:16 10° S
Cosmos 482 Debris 4.3 04:33:23 18° SSW 04:33:23 18° SSW 04:34:34 10° SSE
STARLINK-1153 3.3 04:31:49 20° NW 04:33:34 49° NNE 04:36:26 10° E
STARLINK-1180 3.3 04:32:00 20° NW 04:33:48 49° NNE 04:36:40 10° E
STARLINK-1158 3.6 04:31:58 18° WNW 04:34:09 51° NNE 04:37:24 10° E
STARLINK-1174 3.3 04:32:27 20° NW 04:34:15 49° NNE 04:37:07 10° E
STARLINK-1139 3.3 04:32:41 20° NW 04:34:29 49° NNE 04:37:21 10° E
Cosmos 2100 Rocket 4.2 04:28:42 10° NNW 04:34:35 45° W 04:40:23 10° SSW
STARLINK-1133 3.3 04:32:54 19° NW 04:34:42 49° NNE 04:37:34 10° E
Cosmos 1151 Rocket 4.3 04:30:39 10° SSE 04:34:46 45° E 04:38:56 10° NNE
SJ-12 4.1 04:30:46 10° N 04:34:47 51° WNW 04:38:48 10° SSW
STARLINK-1151 3.3 04:33:08 19° NW 04:34:57 49° NNE 04:37:49 10° E
STARLINK-1160 3.3 04:33:46 19° NW 04:35:37 50° NNE 04:38:29 10° E
USA 215 3.9 04:29:38 10° ENE 04:35:45 44° N 04:41:24 12° WNW
STARLINK-1161 3.3 04:33:58 19° NW 04:35:50 50° NNE 04:38:42 10° E
STARLINK-1145 3.3 04:34:12 19° NW 04:36:04 50° NNE 04:38:55 10° E
STARLINK-1172 3.3 04:34:24 19° NW 04:36:16 50° NNE 04:39:08 10° E
STARLINK-1182 3.3 04:34:50 19° NW 04:36:44 50° NNE 04:39:36 10° E
STARLINK-1164 3.3 04:35:03 18° NW 04:36:57 50° NNE 04:39:49 10° E
STARLINK-1168 3.3 04:35:16 18° NW 04:37:10 51° NNE 04:40:03 10° E
Shenzhou-11 Module 3.7 04:35:31 12° SW 04:37:16 20° S 04:39:19 10° ESE
STARLINK-1183 3.3 04:35:55 18° NW 04:37:52 51° NNE 04:40:43 10° E
STARLINK-1181 3.2 04:36:08 18° NW 04:38:04 51° NNE 04:40:56 10° E
STARLINK-1196 3.2 04:36:47 18° NW 04:38:45 51° NNE 04:41:38 10° E
STARLINK-1186 3.2 04:37:12 18° NW 04:39:12 52° NNE 04:42:04 10° E
STARLINK-1185 3.2 04:37:26 17° NW 04:39:26 52° NNE 04:42:18 10° E
STARLINK-1175 3.2 04:37:38 17° WNW 04:39:39 52° NNE 04:42:32 10° E
STARLINK-1147 3.2 04:37:52 17° WNW 04:39:53 52° NNE 04:42:46 10° E
STARLINK-1146 3.2 04:38:04 17° WNW 04:40:06 52° NNE 04:42:59 10° E
STARLINK-1132 3.0 04:38:24 18° WNW 04:40:18 55° NNE 04:43:04 10° E
STARLINK-1152 3.2 04:38:19 17° WNW 04:40:21 52° NNE 04:43:14 10° E
STARLINK-1098 3.8 04:36:27 10° SW 04:40:28 70° SSE 04:44:32 10° ENE
STARLINK-1195 3.2 04:38:31 17° WNW 04:40:34 52° NNE 04:43:27 10° E
Cosmos 1140 Rocket 3.6 04:35:35 10° SW 04:40:46 59° WNW 04:45:59 10° NNE
STARLINK-1137 3.2 04:38:44 17° WNW 04:40:47 53° NNE 04:43:40 10° E
MOS 1-B 4.3 04:35:04 10° NNE 04:40:53 73° WNW 04:46:40 10° SSW
STARLINK-1142 3.2 04:38:57 17° WNW 04:41:01 53° NNE 04:43:54 10° E
STARLINK-1127 3.2 04:39:09 17° WNW 04:41:13 53° NNE 04:44:06 10° E
Cosmos 1954 Rocket 4.0 04:36:05 10° SSW 04:41:24 81° WNW 04:46:46 10° NNE
STARLINK-1184 3.2 04:39:22 17° WNW 04:41:27 53° NNE 04:44:20 10° E
STARLINK-1193 3.2 04:39:35 17° WNW 04:41:41 53° NNE 04:44:34 10° E
STARLINK-1194 3.2 04:39:49 17° WNW 04:41:55 53° NNE 04:44:47 10° E
Cosmos 407 Rocket 3.9 04:37:18 10° SW 04:42:22 43° WNW 04:47:25 10° NNE
Cosmos 1328 Rocket 4.4 04:38:09 10° S 04:42:30 57° E 04:46:52 10° NNE
STARLINK-1150 3.0 04:40:36 17° WNW 04:42:36 56° NNE 04:45:22 10° E
Cosmos 1862 3.4 04:38:45 10° NNW 04:42:37 52° W 04:46:28 10° S
STARLINK-1163 3.0 04:41:50 16° WNW 04:43:52 57° NNE 04:46:38 10° E
Helios 1A Rocket 3.7 04:39:55 10° NNE 04:44:02 58° ESE 04:48:05 10° S
GEOS 3 Rocket 3.8 04:38:57 10° NE 04:44:08 57° NW 04:49:21 10° WSW
STARLINK-1123 3.7 04:40:54 10° SW 04:44:58 74° SSE 04:49:03 10° ENE
Cosmos 1459 Rocket 4.3 04:39:28 10° NNW 04:45:12 41° W 04:51:00 10° SSW
STARLINK-1177 2.9 04:43:31 16° WNW 04:45:37 58° NNE 04:48:24 10° E
STARLINK-1173 2.9 04:43:34 16° WNW 04:45:40 58° NNE 04:48:27 10° E
Cosmos 1484 Rocket 3.8 04:42:49 10° N 04:46:08 26° WNW 04:49:27 10° WSW
STARLINK-1167 2.9 04:44:01 15° WNW 04:46:09 59° NNE 04:48:57 10° E
Cosmos 921 Rocket 4.1 04:42:47 10° NW 04:46:23 25° W 04:49:55 10° SSW
BREEZE M DEB (TANK) 3.7 04:45:29 14° W 04:48:21 76° SSW 04:58:25 10° ESE
USA 116 3.8 04:46:20 10° SSW 04:49:12 32° W 04:52:03 10° NNW
STARLINK-1097 3.7 04:46:02 10° WSW 04:50:08 79° SSE 04:54:14 10° ENE
STARLINK-1136 2.8 04:48:47 14° WNW 04:51:05 63° NNE 04:53:52 10° ESE
Cosmos 2061 Rocket 4.2 04:45:58 10° NNW 04:52:01 51° W 04:57:59 10° SSW
Cosmos 1340 2.7 04:49:15 10° N 04:53:02 85° E 04:56:48 10° SSE
STARLINK-1099 3.6 04:50:54 10° WSW 04:54:59 83° SSE 04:59:06 10° ENE
STARLINK-1170 2.6 04:53:19 13° WNW 04:55:37 65° NNE 04:58:14 10° ESE
STARLINK-1070 2.8 04:54:20 12° WSW 04:57:00 62° NNW 04:59:56 10° ENE
STARLINK-1124 2.9 04:54:42 12° W 04:57:16 55° NNW 05:00:10 10° ENE
Cosmos 220 Rocket 4.3 04:53:17 10° NNW 04:57:31 70° ENE 05:01:43 10° SSE
STARLINK-1066 2.8 04:54:55 12° WSW 04:57:36 61° NNW 05:00:30 10° ENE
STARLINK-1081 2.8 04:55:08 12° W 04:57:49 61° NNW 05:00:43 10° ENE
Cosmos 1725 Rocket 4.1 04:52:05 10° NNW 04:58:12 58° W 05:04:20 10° S
STARLINK-1069 2.8 04:55:34 11° W 04:58:16 61° NNW 05:01:11 10° ENE
STARLINK-1085 2.8 04:55:46 11° W 04:58:29 61° NNW 05:01:24 10° ENE
STARLINK-1086 2.8 04:56:03 11° W 04:58:46 61° NNW 05:01:41 10° ENE
STARLINK-1095 2.8 04:56:13 11° W 04:58:57 60° NNW 05:01:51 10° ENE
STARLINK-1077 2.8 04:56:24 11° W 04:59:08 60° NNW 05:02:02 10° ENE
STARLINK-1075 2.8 04:56:39 11° W 04:59:24 60° NNW 05:02:18 10° ENE
STARLINK-1093 2.8 04:56:52 11° W 04:59:37 60° NNW 05:02:32 10° ENE
STARLINK-1104 3.6 04:55:43 10° WSW 04:59:48 87° SSE 05:03:55 10° ENE
STARLINK-1074 2.8 04:57:06 11° W 04:59:52 60° NNW 05:02:47 10° ENE
COSMO-SKYMED 1 3.8 04:56:43 10° SW 04:59:59 20° W 05:03:15 10° NW
STARLINK-1087 2.8 04:57:18 11° W 05:00:05 60° NNW 05:02:59 10° ENE
STARLINK-1088 2.8 04:57:29 11° W 05:00:15 59° NNW 05:03:11 10° ENE
Cosmos 2221 4.0 04:57:41 10° WSW 05:00:27 16° WNW 05:03:13 10° NNW
STARLINK-1115 2.8 04:57:44 11° W 05:00:32 59° NNW 05:03:27 10° ENE
STARLINK-1076 2.8 04:57:57 11° W 05:00:45 59° NNW 05:03:40 10° ENE
Cosmos 1633 Rocket 3.1 04:56:32 10° NNW 05:00:49 56° W 05:05:06 10° S
STARLINK-1092 2.8 04:58:10 11° W 05:00:59 59° NNW 05:03:53 10° ENE
STARLINK-1080 2.9 04:58:23 11° W 05:01:12 59° NNW 05:04:05 10° ENE
STARLINK-1090 2.9 04:58:36 10° W 05:01:26 59° NNW 05:04:20 10° ENE
STARLINK-1089 2.9 04:58:51 10° W 05:01:42 58° NNW 05:04:37 10° ENE
STARLINK-1107 2.9 04:59:03 10° W 05:01:53 58° NNW 05:04:48 10° ENE
STARLINK-1109 2.9 04:59:15 10° W 05:02:06 58° NNW 05:05:00 10° ENE
STARLINK-1091 2.9 04:59:29 10° W 05:02:20 58° NNW 05:05:15 10° ENE
STARLINK-1072 2.9 04:59:40 10° W 05:02:32 58° NNW 05:05:26 10° ENE
Cosmos 1515 Rocket 4.4 04:58:20 10° S 05:02:41 57° E 05:07:03 10° NNE
STARLINK-1096 2.9 04:59:53 10° W 05:02:45 58° NNW 05:05:39 10° ENE
STARLINK-1079 2.9 05:00:06 10° W 05:02:59 57° NNW 05:05:53 10° ENE
STARLINK-1116 2.9 05:00:21 10° W 05:03:14 57° NNW 05:06:08 10° ENE
Cosmos 2123 Rocket 4.1 04:57:04 10° SSW 05:03:19 62° WNW 05:09:34 10° N
STARLINK-1094 2.9 05:00:47 10° W 05:03:41 57° NNW 05:06:35 10° ENE
STARLINK-1117 2.9 05:01:00 10° W 05:03:54 57° NNW 05:06:48 10° ENE
STARLINK-1078 2.9 05:01:15 10° W 05:04:09 57° NNW 05:07:03 10° ENE
Cosmos 1666 Rocket 3.9 05:00:03 10° NNW 05:04:16 43° W 05:08:25 10° SSW
STARLINK-1144 3.6 05:00:15 10° WSW 05:04:20 89° NNW 05:08:27 10° ENE
STARLINK-1108 2.9 05:01:28 10° W 05:04:22 56° NNW 05:07:15 10° ENE
Cosmos 1346 Rocket 2.7 05:00:29 10° NNW 05:04:25 90° SW 05:08:17 10° S
STARLINK-1071 2.9 05:01:41 10° W 05:04:33 56° NNW 05:07:27 10° ENE
Cosmos 1933 Rocket 4.0 05:00:29 10° N 05:04:50 67° ENE 05:09:08 10° SSE
STARLINK-1110 2.9 05:01:57 10° W 05:04:50 56° NNW 05:07:44 10° ENE
STARLINK-1122 2.9 05:02:21 10° W 05:05:14 56° NNW 05:08:08 10° ENE
STARLINK-1126 2.9 05:02:35 10° W 05:05:28 56° NNW 05:08:22 10° ENE
STARLINK-1082 2.9 05:02:49 10° W 05:05:42 56° NNW 05:08:37 10° ENE
STARLINK-1100 2.9 05:03:04 10° W 05:05:57 55° NNW 05:08:51 10° ENE
STARLINK-1083 2.9 05:03:17 10° W 05:06:10 55° NNW 05:09:03 10° ENE
STARLINK-1162 3.1 05:02:59 10° WNW 05:06:13 72° NNE 05:09:27 10° ESE
STARLINK-1125 2.9 05:03:29 10° W 05:06:22 55° NNW 05:09:16 10° ENE
PAYLOAD B 4.4 05:01:25 10° N 05:06:52 55° WNW 05:12:15 10° SW
STARLINK-1157 3.1 05:05:04 10° WNW 05:08:18 73° NNE 05:11:32 10° ESE
STARLINK-1128 3.5 05:04:59 10° WSW 05:09:02 83° NNW 05:13:06 10° ENE
STARLINK-1103 3.6 05:05:25 10° WSW 05:09:31 84° NNW 05:13:38 10° ENE
STARLINK-1159 3.1 05:07:19 10° WNW 05:10:33 76° NNE 05:13:48 10° ESE
COSMOS 2455 3.7 05:05:03 10° NNW 05:10:56 51° NE 05:16:47 10° ESE
Cosmos 1238 Rocket 4.4 05:05:39 10° NNW 05:10:59 33° W 05:15:37 10° SSW
Iridium 51 4.1 05:07:27 10° SSW 05:11:16 61° W 05:14:53 10° N
Envisat 4.0 05:06:44 10° NNE 05:11:44 53° E 05:16:41 10° S
NOSS 3-4 (A) 4.2 05:04:57 10° NW 05:11:49 69° NE 05:19:24 10° SE
NOSS 3-4 (C) 4.2 05:05:04 10° NW 05:11:55 68° NE 05:19:29 10° SE
Cosmos 1741 Rocket 4.3 05:07:16 10° SSW 05:12:30 78° ESE 05:17:49 10° NNE
STARLINK-1171 3.0 05:09:38 10° WNW 05:12:54 78° NNE 05:16:08 10° ESE
CZ-4C R/B 4.1 05:08:25 10° NW 05:13:12 23° N 05:18:37 10° NE
STARLINK-1113 3.6 05:09:50 10° WSW 05:13:54 80° NNW 05:17:59 10° ENE
STARLINK-1101 3.6 05:10:17 10° WSW 05:14:23 80° NNW 05:18:30 10° ENE
STARLINK-1155 3.0 05:11:49 10° WNW 05:15:04 80° NNE 05:18:19 10° ESE
Cosmos 468 Rocket 4.1 05:11:35 10° NNW 05:16:51 62° WSW 05:22:02 10° S
BREEZE-M DEB (TANK) 3.2 05:13:16 10° SW 05:17:07 44° SSE 05:19:22 10° E
